GFO                     
1 25157U 98007A   19264.75152208 -.00000018  00000-0  15791-4 0  9993
2 25157 108.0423 139.6097 0169891 168.4479 192.0668 15.00944319153320
ORBCOMM FM03            
1 25158U 98007B   19264.50825880  .00000063  00000-0  75272-4 0  9999
2 25158 107.9936 171.8161 0050917 287.6827  71.8755 14.29426136124430
ORBCOMM FM04            
1 25159U 98007C   19264.75679253  .00000015  00000-0  56568-4 0  9992
2 25159 107.9926 173.9973 0046620 287.1669  72.4367 14.29696979124563
CELESTIS-02 & TAURUS R/B
1 25160U 98007D   19265.44036865 -.00000088  00000-0  18639-4 0  9995
2 25160 107.9652  56.6490 0062029  19.3075  17.1820 14.21526209121117
TAURUS DEB              
1 25161U 98007E   19263.64834375 -.00000038  00000-0  38632-4 0  9998
2 25161 107.9930 114.8799 0061914 329.4593  72.0278 14.25372032122494